This demonstration page uses our WeatherBlox Daily Observations layout. Learn more.

Left ArrowRight Arrow

Hourly Observations for October 23, 2021

Temp ( °F °C ) Dew Point ( °F °C ) Humidity (%) Winds ( mph kmh ) Pressure ( in mb ) Visibility ( mi km ) Precip ( " mm )
12:56 am 00:56 Clear 41 5 35 1.7 79 79 ENE 12 19 29.90 1013 10 16 N/A
1:56 am 01:56 Clear 40 4.4 35 1.7 83 83 ENE 9 15 29.89 1012 10 16 N/A
2:56 am 02:56 Clear 39 3.9 34 1.1 82 82 ENE 9 15 29.89 1012 10 16 N/A
3:56 am 03:56 Clear 39 3.9 34 1.1 82 82 NE 10 17 29.87 1012 10 16 N/A
4:56 am 04:56 Clear 38 3.3 34 1.1 86 86 undefined N/A 29.87 1011 10 16 N/A
5:56 am 05:56 Clear 37 2.8 34 1.1 89 89 ENE 6 9 29.88 1012 10 16 N/A
6:56 am 06:56 Clear 36 2.2 34 1.1 93 93 ENE 8 13 29.89 1012 10 16 N/A
7:56 am 07:56 Clear 36 2.2 34 1.1 93 93 ENE 9 15 29.89 1012 10 16 N/A
8:56 am 08:56 Sunny 38 3.3 35 1.7 89 89 E 12 19 29.91 1013 10 16 N/A
9:56 am 09:56 Sunny 43 6.1 36 2.2 76 76 E 15 24 29.90 1012 10 16 N/A
10:47 am 10:47 Mostly Cloudy 46 8 39 4 76 76 E 16 26 29.89 1012 10 16 N/A
10:56 am 10:56 Mostly Cloudy 49 9.4 39 3.9 69 69 E 17 28 29.87 1012 10 16 N/A
11:10 am 11:10 Partly Cloudy 48 9 39 4 71 71 E 15 24 29.87 1012 10 16 N/A
11:56 am 11:56 Sunny 53 11.7 41 5 64 64 E 16 26 29.84 1011 10 16 N/A
12:28 pm 12:28 Mostly Cloudy 54 12 41 5 63 63 E 14 22 29.82 1010 10 16 N/A
12:56 pm 12:56 Cloudy 55 12.8 42 5.6 62 62 E 16 26 29.84 1010 10 16 N/A
1:56 pm 13:56 Cloudy 56 13.3 43 6.1 62 62 undefined N/A 29.81 1010 10 16 N/A
2:56 pm 14:56 Cloudy 56 13.3 43 6.1 62 62 E 14 22 29.79 1009 10 16 N/A
3:56 pm 15:56 Cloudy 56 13.3 45 7.2 67 67 undefined N/A 29.78 1008 10 16 N/A
4:56 pm 16:56 Cloudy 55 12.8 46 7.8 72 72 E 16 26 29.77 1008 10 16 N/A
5:56 pm 17:56 Cloudy 56 13.3 44 6.7 65 65 E 13 20 29.77 1008 10 16 N/A
6:56 pm 18:56 Cloudy 55 12.8 43 6.1 64 64 E 15 24 29.75 1008 10 16 N/A
7:56 pm 19:56 Cloudy 55 12.8 44 6.7 67 67 E 14 22 29.76 1008 10 16 N/A
8:56 pm 20:56 Cloudy 55 12.8 44 6.7 67 67 E 16 26 29.72 1006 10 16 N/A
9:56 pm 21:56 Cloudy 54 12.2 47 8.3 77 77 E 23 37 29.72 1006 10 16 0.00 0.00
10:12 pm 22:12 Cloudy 54 12 48 9 82 82 E 18 30 29.71 1006 10 16 N/A
10:56 pm 22:56 Cloudy 52 11.1 48 8.9 86 86 E 18 30 29.70 1006 10 16 N/A
11:56 pm 23:56 Cloudy 52 11.1 48 8.9 86 86 E 15 24 29.69 1005 8 13 N/A

Powered by AerisWeather